This demonstration page uses our WeatherBlox Daily Observations layout. Learn more.

Left ArrowRight Arrow

41.76142, -88.44369

Hourly Observations for August 5, 2016

Temp ( °F °C ) Dew Point ( °F °C ) Humidity (%) Winds ( mph kmh ) Pressure ( in mb ) Visibility ( mi km ) Precip ( " mm )
12:00 am 00:00 Mostly Clear with Light Rain 73 22.8 69 20.6 87 87 N 3 6 29.91 1013 7 11 0.01 0.25
12:11 am 00:11 Mostly Clear with Thunderstorms 73 22.8 69 20.6 87 87 W 3 6 29.91 1013 8 13 0.02 0.51
12:32 am 00:32 Partly Cloudy with Light Rain 72 22.2 69 20.6 91 91 SSW 5 7 29.88 1012 4 6 0.05 1.27
12:52 am 00:52 Mostly Clear with Light Rain 72 22.2 69 20.6 91 91 SSW 10 17 29.90 1012 6 10 0.08 2.03
1:02 am 01:02 Mostly Clear with Nearby Thunderstorms 72 22.2 69 20.6 91 91 SSW 12 19 29.88 1012 6 10 0.02 0.51
1:17 am 01:17 Mostly Clear with Light Rain 72 22.2 69 20.6 91 91 S 10 17 29.85 1011 6 10 0.05 1.27
1:52 am 01:52 Mostly Clear with Light Rain 73 22.8 70 21.1 90 90 S 18 30 29.77 1008 8 13 0.07 1.78
2:52 am 02:52 Clear 73 22.8 69 20.6 87 87 NW 10 17 29.82 1010 9 14 0.00 0.03
3:52 am 03:52 Clear 72 22.2 69 20.6 91 91 W 9 15 29.83 1010 8 13 0.00 0.00
5:52 am 05:52 Mostly Cloudy 72 22.2 69 20.6 91 91 W 5 7 29.87 1011 8 13 0.00 0.00
6:36 am 06:36 Cloudy with Mist and Fog 72 22.2 70 21.1 94 94 NNE 5 7 29.85 1011 6 10 0.00 0.00
6:52 am 06:52 Cloudy with Mist and Fog 72 22.2 70 21.1 94 94 Calm 29.88 1012 6 10 0.00 0.00
7:22 am 07:22 Cloudy 73 22.8 70 21.1 90 90 Calm 29.88 1012 7 11 0.00 0.00
7:52 am 07:52 Cloudy 74 23.3 70 21.1 88 88 W 3 6 29.89 1012 7 11 0.00 0.00
8:52 am 08:52 Cloudy 76 24.4 70 21.1 82 82 W 6 9 29.89 1012 9 14 0.00 0.00
9:17 am 09:17 Cloudy 76 24.4 70 21.1 82 82 WNW 6 9 29.88 1012 9 14 0.00 0.00
9:52 am 09:52 Cloudy 76 24.4 70 21.1 82 82 NW 3 6 29.89 1012 9 14 0.00 0.00
10:27 am 10:27 Cloudy 75 23.9 70 21.1 84 84 NW 5 7 29.91 1013 8 13 0.00 0.00
10:52 am 10:52 Cloudy 74 23.3 70 21.1 88 88 NW 5 7 29.92 1013 7 11 0.00 0.00
11:52 am 11:52 Cloudy 77 25 70 21.1 79 79 SSW 3 6 29.92 1013 9 14 0.00 0.00
12:52 pm 12:52 Mostly Cloudy 81 27.2 69 20.6 67 67 VRB 3 6 29.91 1013 10 16 0.00 0.00
1:52 pm 13:52 Mostly Cloudy 82 27.8 70 21.1 67 67 VRB 7 11 29.89 1012 10 16 0.00 0.00
2:52 pm 14:52 Mostly Sunny 84 28.9 68 20 59 59 NW 6 9 29.89 1012 10 16 0.00 0.00
3:52 pm 15:52 Mostly Sunny 84 28.9 67 19.4 57 57 NNW 10 17 29.89 1012 10 16 0.00 0.00
4:52 pm 16:52 Mostly Sunny 83 28.3 67 19.4 59 59 NW 7 11 29.88 1012 10 16 0.00 0.00
5:52 pm 17:52 Mostly Sunny 82 27.8 66 18.9 58 58 NNW 8 13 29.89 1012 10 16 0.00 0.00
6:52 pm 18:52 Sunny 80 26.7 67 19.4 64 64 NW 5 7 29.89 1012 10 16 0.00 0.00
7:52 pm 19:52 Sunny 74 23.3 68 20 82 82 NW 5 7 29.90 1013 9 14 0.00 0.00
8:52 pm 20:52 Clear 71 21.7 67 19.4 87 87 W 3 6 29.92 1013 9 14 0.00 0.00
9:52 pm 21:52 Clear 69 20.6 66 18.9 90 90 NW 5 7 29.93 1014 10 16 0.00 0.00
10:52 pm 22:52 Clear 68 20 65 18.3 90 90 NNW 6 9 29.94 1014 10 16 0.00 0.00
11:52 pm 23:52 Clear 66 18.9 63 17.2 90 90 NW 6 9 29.95 1014 9 14 0.00 0.00

Powered by Vaisala Xweather